Regional Weather Roundup
Issued by NWS

Home | Current Version | Previous Version | Text Only | Print | Product List | Glossary Off
Versions: 1 2 3 4 5 6 7 8 9 10 11 12 13 14 15 16 17 18 19 20 21 22 23 24 25 26 27 28 29 30 31 32 33 34 35 36 37 38 39 40 41 42 43 44 45 46 47 48 49 50

000
ASUS43 KMKX 182200
RWRWI

WISCONSIN REGIONAL WEATHER ROUNDUP
NATIONAL WEATHER SERVICE MILWAUKEE/SULLIVAN WI
500 PM CDT SAT APR 18 2015

NOTE: "FAIR" INDICATES FEW OR NO CLOUDS BELOW 12,000 FEET WITH NO
SIGNIFICANT WEATHER AND/OR OBSTRUCTIONS TO VISIBILITY.

WIZ001-002-006>008-014>016-023>028-182300-
NORTHWEST WISCONSIN

CITY           SKY/WX    TMP DP  RH WIND       PRES   REMARKS
SUPERIOR ARPT  SUNNY     41  34  74 E17G26    30.14F
ASHLAND        SUNNY     47  34  60 N16       30.14F
HAYWARD        SUNNY     64  34  32 N18       30.03F
SIREN          MOSUNNY   71  28  20 SE8       30.00F
CUMBERLAND     PTSUNNY   64  32  29 SE13      30.01F
RICE LAKE      PTSUNNY   66  32  27 SE14      30.03F
CHETEK         PTSUNNY   66  34  30 E12       30.03F
LADYSMITH      MOSUNNY   68  30  24 SE10      30.06F
EAU CLAIRE     NOT AVBL
MENOMONIE      CLOUDY    69  30  23 E13       30.00F
NEW RICHMOND   CLOUDY    67  31  25 E10G17    29.99F
OSCEOLA        CLOUDY    68  33  26 E13       30.01F
$$

WIZ003>005-009-010-017-018-182300-
NORTH CENTRAL WISCONSIN

CITY           SKY/WX    TMP DP  RH WIND       PRES   REMARKS
MANITOWISH WTR SUNNY     62  22  21 E9        30.10F
ARBOR VITAE    SUNNY     64  18  17 E13G21    30.09F
WOODRUFF       SUNNY     64  18  17 E13G21    30.09F
RHINELANDER    SUNNY     63  21  20 E14       30.11F
EAGLE RIVER    SUNNY     63  13  14 E9        30.11F
LAND O LAKES   SUNNY     63  12  14 SE10G16   30.12F
PHILLIPS       MOSUNNY   65  26  23 SE10      30.07F
TOMAHAWK       MOSUNNY   64  25  22 CALM      30.10F
MEDFORD        PTSUNNY   60  28  29 SE12G17   30.08S
MERRILL        PTSUNNY   64  25  22 SE13G20   30.10S
$$

WIZ029-030-035-036-043>047-182300-
CENTRAL WISCONSIN

CITY           SKY/WX    TMP DP  RH WIND       PRES   REMARKS
WAUSAU         PTSUNNY   61  18  18 E17       30.08F
MOSINEE        NOT AVBL
MARSHFIELD     MOSUNNY   64  28  25 E16       30.07F
STEVENS POINT  MOSUNNY   60  27  28 E18G24    30.10F
WAUPACA        MOSUNNY   64  22  20 E12G17    30.12F
WAUTOMA        NOT AVBL
WISC RAPIDS    MOSUNNY   64  24  21 E17       30.08F
CAMP DOUGLAS   NOT AVBL
$$

WIZ011>013-019>022-031-037>040-048>050-182300-
NORTHEAST WISCONSIN

CITY           SKY/WX    TMP DP  RH WIND       PRES   REMARKS
ANTIGO         MOSUNNY   60  22  23 SE15      30.13S
SHAWANO        MOSUNNY   60  28  29 NE13      30.15F
OCONTO         SUNNY     55  27  33 NE9       30.15F
STURGEON BAY   SUNNY     57  21  24 NE10      30.16F
GREEN BAY      MOSUNNY   58  32  37 NE16      30.13F
MANITOWOC      NOT AVBL
APPLETON       NOT AVBL
CLINTONVILLE   PTSUNNY   59  18  20 E14       30.13F
OSHKOSH        SUNNY     61  27  27 NE12      30.09F
$$

WIZ032>034-041-042-053>061-182300-
SOUTHWEST WISCONSIN

CITY           SKY/WX    TMP DP  RH WIND       PRES   REMARKS
LA CROSSE      MOSUNNY   72  37  28 SE14      29.97F
SPARTA         SUNNY     68  32  26 E16G25    30.02S
VIROQUA        PTSUNNY   68  37  31 E15G23    30.00F
BOSCOBEL       MOSUNNY   73  38  27 E14G20    29.98F
PRAIRIE DU CHI PTSUNNY   73  35  25 E17       29.94F
PLATTEVILLE    MOSUNNY   72  37  28 E22       29.97F
$$

WIZ056-057-062-063-064-067-068-182300-
SOUTH CENTRAL WISCONSIN

CITY           SKY/WX    TMP DP  RH WIND       PRES   REMARKS
REEDSBURG      SUNNY     66  35  30 E12G20    30.03F
BARABOO/DELLS  SUNNY     66  32  27 E13G22    30.04F
LONE ROCK      NOT AVBL
MINERAL POINT  MOSUNNY   70  30  23 E15G21    30.00F
MADISON        PTSUNNY   68  30  24 E15       30.03F
MIDDLETON      SUNNY     69  28  21 E10G18    30.04F
WATERTOWN      SUNNY     66  33  28 E9        30.05F
MONROE         MOSUNNY   70  34  26 NE13G21   30.00F
JANESVILLE     NOT AVBL
$$

WIZ051-052-058>065-066-070>072-182300-
SOUTHEAST WISCONSIN

CITY           SKY/WX    TMP DP  RH WIND       PRES   REMARKS
MILWAUKEE      MOSUNNY   46  34  62 N23G32    30.09F
WAUKESHA       MOSUNNY   57  34  41 NE14      30.07F
MILWAUKEE/TIMM SUNNY     54  30  40 NE14G21   30.09F
RACINE         SUNNY     46  34  62 N22G30    30.09F
BURLINGTON     MOSUNNY   60  35  38 NE9       30.05F
KENOSHA        MOSUNNY   54  35  48 N15G24    30.06F
FOND DU LAC    SUNNY     64  28  25 NE12      30.08F
SHEBOYGAN      SUNNY     53  34  48 NE17      30.11F
WEST BEND      SUNNY     57  30  35 NE13      30.08F
JUNEAU         SUNNY     64  30  27 E9G18     30.07F
$$

LSZ147-162-182300-
LAKE SUPERIOR

STATION/POSITION TIME  TEMP    WIND        PRES    WAVE
                       AIR SEA DIR/SP/G            HT/PER
                 (UTC) (F)     (DEG/KT/KT) (MB)    (FT/S)
DEVILS ISLAND    2100   36      60/ 21/ 23 1022.6F
PORT WING        2140   39      40/ 24/ 28 1020.3F
SAXON HARBOR     2140   40     350/ 12/ 16 1019.6F
$$

LMZ867-665-643>646-182300-
LAKE MICHIGAN

STATION/POSITION TIME  TEMP    WIND        PRES    WAVE
                       AIR SEA DIR/SP/G            HT/PER
                 (UTC) (F)     (DEG/KT/KT) (MB)    (FT/S)
CHAMBERS ISLAND  2100   44     360/  8/  9 1022.7S
NORTHPORT PIER   2100   45      80/  6/  8 1022.4F
SISTER BAY       2132   60      70/ 10/ 18   N/A
KEWAUNEE LAKESHO 2100   46      30/ 13/ 18 1020.3F
SHEBOYGAN LAKESH 2100   42      10/ 20/ 23 1020.9F
PORT WASHINGTON  2100   49      50/ 14/ 18 1020.3
MILWAUKEE LAKESH 2100   43      10/ 18/ 26   N/A
KENOSHA   LAKESH 2100   44      20/ 22/ 25 1018.3F
$$

TC  - TEMPERATURE IN CELSIUS
VSB - VISIBILITY IN STATUTE MILES
WCI - WIND CHILL INDEX
HX  - HEAT INDEX




USA.gov is the U.S. government's official web portal to all federal, state and local government web resources and services.